Find Starlink 32239

NORAD ID: 61892 Int'l Des: 2024-204 Owner: SPXS Country: US Constellation: starlink operational
LEOCIRCULAR

当前视图

正在加载3D地球...

About Starlink 32239

Starlink 32239 (NORAD 61892) is a starlink constellation satellite (v2 mini) launched Nov 9, 2024 by SPXS of US. It operates in LEO, CIRCULAR orbit with a mass of 730.00 kg.

即将过境

Passes for default location (London). Set your location on the main map for personalized predictions.

高度历史

Loading altitude history...

两行轨道根数

1 61892U 24204U 26258.16085103 -.00000389 00000-0 -39029-6 0 9996
2 61892 53.1603 324.3719 0001418 92.7262 267.3903 15.34385686104146
Epoch: Sep 15, 2026 • Age: 18 hours

当前状态

高度 464.4 km
远地点 / 近地点 N/A
速度 7.64 km/s
星下点 33.85°N, 151.37°E
发射日期 Nov 9, 2024
运行时间 1.8 years
类型 internet

技术详情

分类 Payload
质量 730.00 kg
干质量 700.00 kg
长度 0.30 m
跨度 29.00 m
形状 ? Box + pan
制造商 SPXS
平台类型 Starlink V2M
阶段状态 In Orbit
所有者/国家 SPXS/US

Most Searched